Location: ???????
(55.4362°N, 38.1183°E)
Time: 18:57:44
(UTC+00:00)

FENGYUN 1C DEB - Visible Passes

Search period start: 16 January 2022 00:00
Search period end: 26 January 2022 00:00
Orbit: 812 x 868 km, 99.2° (Epoch: 16 January)

Date Brightness Start Highest point End Pass type
(mag) Time Alt. Az. Time Alt. Az. Time Alt. Az.
16 Jan ? 15:37:31 10° NNE 15:42:57 70° WNW 15:48:24 10° SSW visible
16 Jan ? 17:18:54 10° N 17:22:34 19° NW 17:26:14 10° W visible
17 Jan ? 15:22:30 10° NNE 15:27:59 86° WNW 15:33:31 10° SSW visible
17 Jan ? 17:03:42 10° N 17:07:48 22° NW 17:11:56 10° W visible
18 Jan ? 15:07:31 10° NNE 15:13:00 76° ESE 15:18:32 10° SSW visible
18 Jan ? 16:48:31 10° N 16:53:00 27° NW 16:57:31 10° WSW visible
19 Jan ? 14:52:33 10° NNE 14:57:59 61° ESE 15:03:27 10° S visible
19 Jan ? 16:33:23 10° N 16:38:11 32° WNW 16:43:01 10° WSW visible
19 Jan ? 18:16:54 10° NNW 18:17:08 10° NW 18:17:22 10° NW visible
20 Jan ? 14:37:38 10° NNE 14:42:56 48° E 14:48:16 10° S visible
20 Jan ? 16:18:16 10° N 16:23:19 40° WNW 16:28:24 10° SW visible
20 Jan ? 18:00:29 10° NNW 18:02:27 12° NW 18:04:26 10° WNW visible
21 Jan ? 14:22:44 10° NNE 14:27:50 38° E 14:32:58 10° SSE visible
21 Jan ? 16:03:11 10° N 16:08:26 49° WNW 16:13:43 10° SW visible
21 Jan ? 17:44:58 10° N 17:47:45 14° NW 17:50:32 10° WNW visible
22 Jan ? 15:48:06 10° NNE 15:53:31 61° WNW 15:58:57 10° SW visible
22 Jan ? 17:29:37 10° N 17:33:00 17° NW 17:36:25 10° W visible
23 Jan ? 15:33:03 10° NNE 15:38:34 76° WNW 15:44:05 10° SSW visible
23 Jan ? 17:14:21 10° N 17:18:14 20° NW 17:22:09 10° W visible
24 Jan ? 15:18:02 10° NNE 15:23:34 87° ESE 15:29:08 10° SSW visible
24 Jan ? 16:59:08 10° N 17:03:27 24° NW 17:07:47 10° WSW visible
25 Jan ? 15:03:02 10° NNE 15:08:33 70° ESE 15:14:06 10° S visible
25 Jan ? 16:43:57 10° N 16:48:37 29° NW 16:53:18 10° WSW visible
